Location: Aalen
(48.8330°N, 10.1000°E)
Time: 06:07:10
(UTC+02:00)

A-11 Canister half - Visible Passes

Search period start: 26 July 2021 00:00
Search period end: 05 August 2021 00:00
Orbit: 1513 x 1687 km, 47.2° (Epoch: 25 July)

Date Brightness Start Highest point End Pass type
(mag) Time Alt. Az. Time Alt. Az. Time Alt. Az.
26 Jul 9.2 01:42:15 10° WNW 01:51:57 52° SSW 02:00:18 15° SE visible
26 Jul 10.1 03:48:40 10° W 03:55:10 19° SW 03:58:08 17° SSW visible
26 Jul 9.1 23:14:16 10° W 23:24:25 81° S 23:34:38 10° ESE visible
27 Jul 9.2 01:19:17 10° WNW 01:29:03 54° SSW 01:35:34 23° SE visible
27 Jul 10.0 03:25:29 10° W 03:32:21 21° SW 03:33:35 20° SW visible
27 Jul 9.1 22:51:20 10° W 23:01:27 82° S 23:11:40 10° ESE visible
28 Jul 9.2 00:56:20 10° WNW 01:06:08 56° SSW 01:12:03 26° SE visible
28 Jul 10.0 03:02:21 10° W 03:09:32 22° SW 03:10:07 22° SW visible
28 Jul 9.2 22:28:23 10° W 22:38:29 82° S 22:48:43 10° E visible
29 Jul 9.2 00:33:22 10° WNW 00:43:13 58° SSW 00:49:01 27° SE visible
29 Jul 10.0 02:39:14 10° W 02:46:42 24° SW 02:47:06 24° SW visible
29 Jul 9.2 22:05:26 10° W 22:15:31 83° S 22:25:46 10° E visible
30 Jul 9.2 00:10:25 10° WNW 00:20:18 60° SSW 00:26:14 27° SE visible
30 Jul 9.9 02:16:08 10° W 02:23:52 26° SW 02:24:21 25° SW visible
30 Jul 9.2 21:42:29 10° W 21:52:34 83° S 22:02:48 10° E visible
30 Jul 9.2 23:47:27 10° WNW 23:57:22 61° SSW 00:03:38 26° SE visible
31 Jul 9.9 01:53:04 10° W 02:01:01 27° SW 02:01:46 27° SW visible
31 Jul 9.2 21:19:33 10° W 21:29:36 83° S 21:39:50 10° E visible
31 Jul 9.2 23:24:31 10° WNW 23:34:26 63° SSW 23:41:10 24° SE visible
01 Aug 9.9 01:30:01 10° W 01:38:11 29° SW 01:39:18 28° SW visible
01 Aug 9.2 23:01:34 10° WNW 23:11:31 65° SSW 23:18:48 21° SE visible
02 Aug 9.8 01:06:59 10° W 01:15:20 30° SW 01:16:57 29° SSW visible
02 Aug 9.2 22:38:38 10° W 22:48:35 67° SSW 22:56:31 18° SE visible
03 Aug 9.8 00:43:57 10° WNW 00:52:28 32° SW 00:54:40 30° SSW visible
03 Aug 9.2 22:15:41 10° W 22:25:38 69° SSW 22:34:18 15° ESE visible
04 Aug 9.8 00:20:56 10° WNW 00:29:37 34° SW 00:32:27 29° SSW visible
04 Aug 9.2 21:52:44 10° W 22:02:41 70° SSW 22:12:09 12° ESE visible
